CW8468 Weather Reports


Display with metric or nautical units.
time (UTC)temp
F
wind
direction
speed
MPH
gust
MPH
rain 1hr
in
rain 24hr
in
rain mn
in
humidity
%
barometer
mb
20260502210027 77 29 5.0 11.0 0.00 0.62 0.00 46 1017.9
20260502205502 78 29 4.0 15.0 0.00 0.77 0.00 44 1017.9
20260502205002 77 332 4.0 15.0 0.00 0.77 0.00 46 1018.0
20260502204518 77 358 3.0 9.0 0.00 0.77 0.00 44 1018.0
20260502204003 77 62 4.0 10.0 0.00 0.77 0.00 45 1017.9
20260502203026 77 27 3.0 13.0 0.00 0.77 0.00 46 1018.0
20260502202003 77 33 4.0 11.0 0.00 0.77 0.00 43 1018.2
20260502201518 77 344 4.0 11.0 0.00 0.77 0.00 47 1018.2
20260502201003 77 45 3.0 10.0 0.00 0.77 0.00 47 1018.2
20260502200502 77 331 3.0 10.0 0.00 0.77 0.00 51 1018.3
20260502200024 76 23 4.0 11.0 0.00 1.00 0.00 47 1018.4
20260502195502 76 327 5.0 11.0 0.00 1.00 0.00 45 1018.5
20260502195001 76 326 5.0 13.0 0.00 1.00 0.00 48 1018.6
20260502194003 76 27 6.0 12.0 0.00 1.00 0.00 45 1018.8
20260502193501 76 10 5.0 12.0 0.00 1.00 0.00 47 1018.8
20260502192500 76 52 5.0 11.0 0.00 1.00 0.00 45 1018.9
20260502192003 76 339 4.0 10.0 0.00 1.00 0.00 47 1018.9
20260502191516 76 15 4.0 10.0 0.00 1.00 0.00 45 1019.0
20260502191003 76 12 5.0 9.0 0.00 1.00 0.00 51 1019.0
20260502190501 75 287 5.0 12.0 0.00 1.00 0.00 46 1019.0
20260502185502 75 11 6.0 15.0 0.00 1.19 0.00 49 1019.2
20260502185004 75 60 5.0 13.0 0.00 1.19 0.00 47 1019.1
20260502184516 75 291 5.0 14.0 0.00 1.19 0.00 49 1019.2
20260502183501 75 348 5.0 13.0 0.00 1.19 0.00 51 1019.4
20260502183025 74 32 5.0 13.0 0.00 1.19 0.00 51 1019.5
20260502182501 74 2 5.0 10.0 0.00 1.19 0.00 50 1019.6
20260502182002 74 56 5.0 11.0 0.00 1.19 0.00 52 1019.6
20260502181002 74 331 6.0 14.0 0.00 1.19 0.00 49 1019.8
20260502180501 74 342 6.0 13.0 0.00 1.19 0.00 50 1019.8
20260502170501 71 2 5.0 13.0 0.00 1.26 0.00 55 1020.1
20260502164002 70 344 6.0 12.0 0.00 1.43 0.00 55 1020.1
20260502163024 69 60 6.0 16.0 0.00 1.43 0.00 58 1020.2
20260502162500 69 45 6.0 16.0 0.00 1.43 0.00 58 1020.2
20260502162002 68 344 5.0 11.0 0.00 1.43 0.00 61 1020.2
20260502161516 68 323 5.0 12.0 0.00 1.43 0.00 61 1020.1
20260502161002 68 7 5.0 12.0 0.00 1.43 0.00 62 1020.1
20260502160501 67 348 5.0 12.0 0.00 1.43 0.00 62 1020.1
20260502151516 64 52 6.0 15.0 0.00 1.48 0.00 68 1019.8
20260502151001 64 8 6.0 14.0 0.00 1.48 0.00 69 1019.9
20260502150501 64 9 5.0 11.0 0.00 1.48 0.00 69 1019.9
20260502130501 54 343 3.0 8.0 0.00 1.78 0.00 89 1018.6
20260502123501 53 4 2.0 5.0 0.00 1.97 0.00 90 1018.3
20260502122501 52 333 2.0 4.0 0.00 1.97 0.00 90 1018.2
20260502122002 52 348 2.0 4.0 0.00 1.97 0.00 90 1018.1
20260502121517 52 15 1.0 4.0 0.00 1.97 0.00 90 1018.0
20260502120502 52 339 2.0 4.0 0.00 1.97 0.00 89 1018.0
20260502115501 52 301 2.0 4.0 0.00 2.16 0.00 89 1017.8
20260502115000 52 329 2.0 4.0 0.00 2.16 0.00 89 1017.7
20260502114514 52 342 2.0 4.0 0.00 2.16 0.00 89 1017.6
20260502113024 52 316 2.0 5.0 0.00 2.16 0.00 89 1017.5
20260502112001 52 344 1.0 4.0 0.00 2.16 0.00 88 1017.5
20260502111515 52 343 2.0 4.0 0.00 2.16 0.00 88 1017.4
20260502111001 52 328 2.0 4.0 0.00 2.16 0.00 88 1017.4
20260502110500 52 358 2.0 5.0 0.00 2.16 0.00 88 1017.3
20260502110023 52 336 2.0 5.0 0.00 2.45 0.00 88 1017.3
20260502105001 52 315 2.0 6.0 0.00 2.45 0.00 88 1017.1
20260502104515 52 335 2.0 5.0 0.00 2.45 0.00 87 1017.1
20260502104000 53 329 2.0 5.0 0.00 2.45 0.00 87 1017.0
20260502103501 53 323 2.0 7.0 0.00 2.45 0.00 87 1017.0
20260502103027 53 307 2.0 7.0 0.00 2.45 0.00 87 1016.9
20260502102001 53 329 2.0 8.0 0.00 2.45 0.00 87 1016.9
20260502101001 53 348 2.0 4.0 0.00 2.45 0.00 87 1016.5
20260502091514 54 19 2.0 5.0 0.00 2.97 0.00 85 1015.7
20260502071000 55 62 2.0 5.0 0.00 3.34 0.00 87 1015.5
20260502070027 55 25 3.0 8.0 0.00 3.34 0.00 88 1015.6
20260502065458 55 358 3.0 8.0 0.00 3.35 0.00 88 1015.5
20260502065000 55 334 3.0 8.0 0.00 3.35 0.00 88 1015.4
20260502064514 55 358 3.0 7.0 0.00 3.35 0.00 88 1015.4
20260502063959 55 16 3.0 7.0 0.00 3.35 0.00 88 1015.3
20260502063459 55 16 3.0 9.0 0.00 3.35 0.00 88 1015.2
20260502062459 55 358 3.0 8.0 0.00 3.35 0.00 88 1015.2
20260502061959 55 348 3.0 10.0 0.00 3.35 0.00 88 1015.2
20260502061514 55 88 4.0 10.0 0.00 3.35 0.00 88 1015.2
20260502061000 55 8 3.0 10.0 0.00 3.35 0.00 88 1015.2
20260502060027 56 4 5.0 12.0 0.00 3.35 0.00 88 1015.1
20260502055504 56 23 4.0 12.0 0.00 3.42 0.00 88 1015.2
20260502055005 56 70 4.0 11.0 0.00 3.42 0.00 88 1015.2
20260502054519 56 25 5.0 11.0 0.00 3.42 0.00 88 1015.1
20260502054005 56 358 5.0 11.0 0.00 3.42 0.00 88 1015.1
20260502053504 56 25 5.0 13.0 0.00 3.42 0.00 88 1015.0
20260502053027 56 304 4.0 13.0 0.00 3.42 0.00 89 1015.0
20260502052504 56 25 4.0 10.0 0.00 3.42 0.00 89 1015.0
20260502052004 56 322 5.0 10.0 0.00 3.42 0.00 89 1015.0
20260502051005 56 23 6.0 13.0 0.00 3.42 0.00 89 1015.0
20260502050503 56 348 6.0 13.0 0.00 3.42 0.00 89 1015.0
20260502050024 56 48 5.0 12.0 0.00 3.65 3.42 89 1015.0
20260502045504 56 12 5.0 14.0 0.00 3.65 3.42 89 1014.9
20260502045004 56 54 5.0 14.0 0.00 3.65 3.42 89 1014.8
20260502044519 56 82 5.0 14.0 0.00 3.65 3.42 89 1014.8
20260502044004 56 348 5.0 13.0 0.00 3.65 3.42 89 1014.8
20260502043504 56 308 4.0 14.0 0.00 3.65 3.42 89 1014.8
20260502043028 56 57 4.0 14.0 0.00 3.65 3.42 90 1014.9
20260502042504 56 87 4.0 10.0 0.00 3.65 3.42 90 1014.9
20260502042004 56 311 5.0 12.0 0.00 3.65 3.42 90 1014.8
20260502041519 56 301 5.0 12.0 0.00 3.65 3.42 90 1014.7
20260502041005 56 24 5.0 14.0 0.00 3.65 3.42 90 1014.7
20260502040503 56 56 5.0 14.0 0.00 3.65 3.42 90 1014.7
20260502040029 56 89 5.0 11.0 0.00 3.65 3.42 90 1014.9
20260502035005 56 49 6.0 14.0 0.01 3.65 3.42 90 1014.9
20260502034004 56 3 5.0 14.0 0.01 3.65 3.42 90 1014.9
20260502033504 56 318 6.0 14.0 0.01 3.65 3.42 90 1014.7
20260502033027 56 348 5.0 11.0 0.01 3.65 3.42 90 1014.5
20260502032504 56 4 5.0 14.0 0.02 3.65 3.42 90 1014.4
20260502032005 56 84 5.0 14.0 0.03 3.65 3.42 90 1014.4
20260502031005 56 353 4.0 10.0 0.05 3.65 3.42 90 1014.3
20260502030503 56 353 5.0 13.0 0.06 3.65 3.42 90 1014.1
20260502025503 56 290 5.0 14.0 0.08 3.65 3.42 90 1013.8
20260502025003 56 54 5.0 11.0 0.09 3.64 3.41 90 1013.8
20260502024518 56 48 6.0 15.0 0.10 3.64 3.41 90 1013.5
20260502024004 56 27 5.0 15.0 0.11 3.64 3.41 90 1013.1
20260502022004 57 358 5.0 16.0 0.11 3.62 3.39 90 1013.2
20260502021519 57 40 4.0 10.0 0.11 3.61 3.38 90 1013.3
20260502021005 57 358 3.0 9.0 0.13 3.60 3.37 90 1013.4
20260502020504 57 58 4.0 12.0 0.13 3.59 3.36 91 1013.0
20260502020020 57 335 4.0 12.0 0.14 3.58 3.35 91 1013.0
20260502015502 57 353 5.0 11.0 0.14 3.57 3.34 90 1013.0
20260502015003 57 2 5.0 11.0 0.12 3.55 3.32 90 1013.0
20260502014518 57 348 6.0 13.0 0.11 3.54 3.31 90 1012.8
20260502014003 58 284 5.0 13.0 0.11 3.53 3.30 90 1012.6
20260502013504 58 358 5.0 11.0 0.12 3.53 3.30 90 1013.0
20260502012502 58 12 5.0 11.0 0.13 3.52 3.29 90 1012.2
20260502012003 58 348 6.0 14.0 0.13 3.51 3.28 90 1012.1
20260502011519 58 23 5.0 14.0 0.11 3.49 3.26 90 1012.2
20260502011004 59 23 3.0 8.0 0.09 3.47 3.24 91 1012.2
20260502010503 59 344 2.0 6.0 0.08 3.45 3.22 90 1012.3
20260502010028 58 40 3.0 6.0 0.08 3.44 3.21 90 1012.3
20260502005003 58 233 4.0 12.0 0.11 3.43 3.20 90 1013.1
20260502004004 59 348 4.0 11.0 0.13 3.42 3.19 90 1011.4
20260502003504 59 308 5.0 10.0 0.13 3.41 3.18 90 1011.1
20260502002502 59 26 6.0 15.0 0.11 3.39 3.16 90 1011.1
20260502002003 59 31 5.0 13.0 0.10 3.38 3.15 90 1011.2
20260502001002 59 6 4.0 9.0 0.11 3.38 3.15 90 1011.7
20260502000501 59 353 5.0 10.0 0.14 3.37 3.14 90 1011.8
20260502000031 59 19 5.0 12.0 0.21 3.36 3.13 90 1011.3
20260501235004 59 318 3.0 6.0 0.25 3.32 3.09 90 1012.2
20260501234004 59 341 4.0 11.0 0.23 3.29 3.06 90 1011.3
20260501232503 59 301 4.0 12.0 0.22 3.28 3.05 90 1010.2
20260501232003 59 353 4.0 12.0 0.22 3.28 3.05 90 1010.2
20260501231005 60 96 4.0 9.0 0.21 3.27 3.04 90 1009.7
20260501230502 60 8 3.0 9.0 0.17 3.23 3.00 90 1010.2
20260501230028 60 93 3.0 9.0 0.07 3.13 2.90 90 1010.6
20260501225502 60 9 4.0 10.0 0.03 3.09 2.86 90 1012.1
20260501225004 60 329 5.0 15.0 0.01 3.07 2.84 90 1010.6
20260501224518 60 26 4.0 15.0 0.00 3.06 2.83 90 1009.0
20260501224003 60 47 4.0 10.0 0.00 3.06 2.83 90 1009.8
20260501223503 60 29 6.0 15.0 0.00 3.06 2.83 90 1009.6
20260501222004 61 16 6.0 15.0 0.02 3.06 2.83 90 1009.1
20260501221517 61 49 6.0 15.0 0.03 3.06 2.83 90 1009.1
20260501221003 61 8 6.0 13.0 0.03 3.06 2.83 90 1009.4
20260501220503 61 358 7.0 14.0 0.03 3.06 2.83 91 1009.6
20260501215002 61 348 6.0 13.0 0.03 3.06 2.83 91 1010.1
20260501214517 61 73 6.0 13.0 0.04 3.06 2.83 91 1010.1
20260501214003 61 8 5.0 13.0 0.04 3.06 2.83 91 1010.2
20260501213502 61 348 4.0 13.0 0.05 3.06 2.83 91 1010.6
20260501213025 61 358 3.0 10.0 0.07 3.06 2.83 91 1010.7
20260501212502 61 32 4.0 10.0 0.06 3.05 2.82 91 1010.4
20260501212002 61 6 4.0 10.0 0.06 3.04 2.81 91 1010.1
20260501211516 61 287 3.0 9.0 0.06 3.03 2.80 91 1010.2
20260501211002 61 85 4.0 10.0 0.08 3.03 2.80 91 1009.9